Other Surface Observations
Issued by NWS Upton, NY

Current Version | Previous Version | Text Only | Print | Product List | Glossary Off
Versions: 1 2 3 4 5 6 7 8 9 10 11 12 13 14 15 16 17 18 19 20 21 22 23 24 25 26 27 28 29 30 31 32 33 34 35 36 37 38 39 40 41 42 43 44 45 46 47 48 49 50
000 SXUS51 KOKX 162057 OSOOKX New York City Metropolitan Area Weather Roundup National Weather Service New York NY 400 PM EST TUE JAN 16 2018 CITY SKY/WX TMP DP RH WIND PRES REMARKS Central Park CLOUDY 35 27 72 VRB3 30.43F LaGuardia Arpt CLOUDY 32 26 78 NE9 30.42S WCI 24 Kennedy Intl CLOUDY 37 33 85 E6 30.43F WCI 32 Newark Liberty CLOUDY 38 31 76 NE6 30.41F WCI 33 Teterboro Arpt CLOUDY 35 25 66 N6 30.41F WCI 30 Bronx Bot Gard N/A 32 25 74 E2 30.44R Bronx Lehman C NOT AVBL Queens College N/A 34 28 80 NE6 N/A WCI 29 Breezy Point N/A 37 N/A N/A SE6 N/A WCI 33 Brooklyn Coll N/A 37 32 81 E8 N/A WCI 31 Staten Island N/A 37 32 81 E5 N/A WCI 34 >>>>>>>>>>>>>>>>>>>>>>>>>>>>>>>>> KEY <<<<<<<<<<<<<<<<<<<<<<<<<<<<<<< > SKY/WX - Sky Condition/Present : R : WCI - Wind Chill Index < > Weather : E : VSB - Visibility in Miles < > TMP - Temperature in Deg F : M : HX - Heat Index < > DP - Dew Point Temperature : A : TC - Temperature in < > RH - Relative Humidity : R : Celsius < > WIND - Direction/Speed (mph) : K : VRB - Variable Wind Dir < > PRES - Pressure (in Hg) : S : < >>>>>>>>>>>>>>>>>>>>>>>>>>>>>>>>> KEY <<<<<<<<<<<<<<<<<<<<<<<<<<<<<<<

USA.gov is the U.S. government's official web portal to all federal, state and local government web resources and services.